Regional Weather Roundup
Issued by NWS Cleveland, OH

Home | Current Version | Previous Version | Text Only | Print | Product List | Glossary Off
Versions: 1 2 3 4 5 6 7 8 9 10 11 12 13 14 15 16 17 18 19 20 21 22 23 24 25 26 27 28 29 30 31 32 33 34 35 36 37 38 39 40 41 42 43 44 45 46 47 48 49 50

000
ASUS41 KCLE 231002
RWRCLE
OHIO REGIONAL WEATHER ROUNDUP
NATIONAL WEATHER SERVICE CLEVELAND, OH
600 AM EDT MON APR 23 2018

NOTE: "FAIR" INDICATES FEW OR NO CLOUDS BELOW 12,000 FEET WITH NO
SIGNIFICANT WEATHER AND/OR OBSTRUCTIONS TO VISIBILITY.

OHZ001>008-015>018-024>027-034-035-043-044-231100-
   NORTHWEST OHIO

CITY           SKY/WX    TMP DP  RH WIND       PRES   REMARKS
DEFIANCE       FAIR      41  30  65 NE7       30.21R
FINDLAY        FAIR      44  27  51 NE9       30.18S
TOLEDO EXPRESS FAIR      42  34  73 NE6       30.21F
TOLEDO EXEC    FAIR      42  35  76 NE6       30.23S
LIMA           FAIR      40  29  64 NE6       30.16S
$$

OHZ009>014-019>023-028>033-038-089-231100-
   NORTHEAST OHIO

CITY           SKY/WX    TMP DP  RH WIND       PRES   REMARKS
CLE-HOPKINS    FAIR      52  34  50 SE13      30.25S
CLE-LAKEFRONT  FAIR      55  34  45 SE14G20   30.23R
CUY CO. ARPT   NOT AVBL
LORAIN-ELYRIA  FAIR      45  28  51 E6        30.23R
ASHTABULA      FAIR      48  26  42 SE10      30.29F
AKRON-CANTON   FAIR      49  35  58 E7        30.24S
WOOSTER        FAIR      45  35  68 E9        30.23R
MANSFIELD      FAIR      46  32  58 SE8       30.20S
YOUNGSTOWN     FAIR      47  32  56 E10       30.27S
$$

OHZ042-051>053-060>062-070>072-077>081-231100-
  SOUTHWEST OHIO

CITY           SKY/WX    TMP DP  RH WIND       PRES   REMARKS
CINC-COVINGTON CLOUDY    54  33  45 E7        30.07S
CINC-LUNKEN    FAIR      47  42  83 CALM      30.09S
HAMILTON       FAIR      51  35  54 E5        30.10S
DAYTON         MOCLDY    51  34  52 E12       30.12S
WRIGHT-PAT AFB FAIR      50  33  51 N7        30.12S
DAYTON GENERAL FAIR      53  32  44 E10       30.10S
WILMINGTON     FAIR      48  35  60 E9        30.11S
$$

OHZ036-037-039>041-045>050-054>059-063>069-073>076-082>088-231100-
  CENTRAL AND SOUTHEAST OHIO

CITY           SKY/WX    TMP DP  RH WIND       PRES   REMARKS
COLUMBUS       MOCLDY    52  35  52 E8        30.16S
OSU AIRPORT    FAIR      48  33  56 E7        30.15S
BOLTON FIELD   FAIR      49  34  56 E3        30.16S
RICKENBACK AFB NOT AVBL
NEWARK         FAIR      48  34  58 NE5       30.18R
MARION         FAIR      46  34  62 SE7       30.18S
LANCASTER      FAIR      42  36  79 NW3       30.17R
ZANESVILLE     FAIR      50  38  63 E7        30.20R
NEW PHILLY     FAIR      51  38  60 VRB6      30.24R
$$



USA.gov is the U.S. government's official web portal to all federal, state and local government web resources and services.